Zurück zum Katalog

CZ-6A DEB

AktivSSO
NORAD 54298·DEBRIS·🇨🇳 China

Gestartet Nov 11, 2022 von Taiyuan Satellite Launch Center

Loading…

Nächste Überflüge (nächste 24 Stunden)

TLE

AktuellSource: Space-Track

Epoche: Sep 13, 2026, 17:06 UTC

1 54298U 22151AR  26256.71314491 -.00000043  00000-0 -90898-7 0  9990
2 54298  98.8426 242.7668 0062757 111.5538 249.2335 14.06959142196480

Verfolge CZ-6A DEB in Echtzeit mit AllMySat

Download on the App Store